TIME,�g��[���C[MJ/h],����[MJ/h],�Ɩ�[MJ/h],�~�[[MJ/h],�①��[MJ/h],��y���[MJ/h],�Ǝ��q��[MJ/h],���̑��s��[MJ/h],�u�����`������[MJ/h]
2004/2/1 0:00,3.19248,0,0.90864,0.0288,0.44496,0.3312,0.92736,0,-0.2952
2004/2/1 0:15,2.6496,0,0.49104,0.02448,0.26208,0.324,0.12672,0,-0.11376
2004/2/1 0:30,2.99232,0,0.44784,0.0216,0,0.324,0.09648,0,-0.07632
2004/2/1 0:45,3.03984,0,0.98352,0.02736,0.35856,0.24768,0.16416,0,-0.17136
2004/2/1 1:00,3.11904,0,1.0872,0.02736,0.34416,0.2232,0.10224,0,-0.19728
2004/2/1 1:15,2.736,0,1.07856,0.0216,0,0.24048,0.1368,0,-0.11808
2004/2/1 1:30,2.98512,0,1.07424,0.02448,0.23184,0.40464,0.10512,0,-0.18576
2004/2/1 1:45,3.08448,0,1.21248,0.0288,0.37008,0.24768,0.08496,0,-0.16272
2004/2/1 2:00,0.90864,0,0.47952,0.0216,0,0.2952,0.08928,0,0.02304
2004/2/1 2:15,0.12528,0,0.13104,0.0216,0.16992,0.20304,0.08784,0,0.04464
2004/2/1 2:30,0.1368,0,0.13104,0.02448,0.43344,0.19584,0.11808,0,0.00144
2004/2/1 2:45,0.12528,0,0.1296,0.0216,0,0.1944,0.09216,0,0.06336
2004/2/1 3:00,0.12816,0,0.1296,0.02304,0.10656,0.1944,0.09216,0,0.05616
2004/2/1 3:15,0.12816,0,0.1296,0.02736,0.4248,0.19584,0.09072,0,0.01872
2004/2/1 3:30,0.12384,0,0.13392,0.0216,0.01152,0.1944,0.0936,0,0.06768
2004/2/1 3:45,0.12096,0,0.13824,0.0216,0.09072,0.1944,0.13104,0,0.06048
2004/2/1 4:00,0.12528,0,0.13104,0.02592,0.39888,0.1944,0.09504,0,0.02304
2004/2/1 4:15,0.11808,0,0.13968,0.0216,0,0.1944,0.08928,0,0.0576
2004/2/1 4:30,0.1224,0,0.1296,0.0216,0.1296,0.19584,0.09216,0,0.04896
2004/2/1 4:45,0.12528,0,0.1296,0.03168,0.41472,0.19728,0.08928,0,0.01584
2004/2/1 5:00,0.11808,0,0.14544,0.02304,0.01296,0.20016,0.12672,0,0.03744
2004/2/1 5:15,0.1296,0,0.1296,0.0216,0.0576,0.19728,0.0936,0,0.0504
2004/2/1 5:30,0.1224,0,0.13392,0.0288,0.42048,0.19728,0.0936,0,0.01728
2004/2/1 5:45,0.12384,0,0.1296,0.0216,0.02016,0.19872,0.09504,0,0.05472
2004/2/1 6:00,0.11664,0,0.13248,0.0216,0.05472,0.2016,0.0936,0,0.05328
2004/2/1 6:15,0.12528,0,0.1296,0.02448,0.40896,0.19872,0.13104,0,0.01296
2004/2/1 6:30,0.12672,0,0.13248,0.02304,0.10224,0.19728,0.09072,0,0.05184
2004/2/1 6:45,0.12528,0,0.1296,0.0216,0,0.19728,0.0936,0,0.05472
2004/2/1 7:00,0.11952,0,0.13104,0.02448,0.35568,0.20304,0.09504,0,0.02304
2004/2/1 7:15,0.1224,0,0.1296,0.02304,0.1512,0.19584,0.12816,0,0.03312
2004/2/1 7:30,0.12384,0,0.0504,0.0216,0,0.19584,0.09792,0,0.08208
2004/2/1 7:45,0.11808,0,0.04608,0.02736,0.28512,0.19584,0.09792,0,0.04464
2004/2/1 8:00,0.11952,0,0.05184,0.02304,0.27648,0.19584,0.1224,0,0.04608
2004/2/1 8:15,0.1152,0,0.04608,0.0216,0,0.19728,0.09504,0,0.06912
2004/2/1 8:30,0.12528,0,0.04608,0.02448,0.16704,0.19584,0.09216,0,0.06768
2004/2/1 8:45,0.1224,0,0.06336,0.02448,0.31392,0.19728,0.13104,0,0.03168
2004/2/1 9:00,1.0512,0,0.3528,0.0216,0,0.1944,0.09936,0,-0.04464
2004/2/1 9:15,0.1296,0,1.008,0.81648,0.13536,0.216,0.09936,0,-0.03456
2004/2/1 9:30,0.14112,0,0.94896,1.61568,0.4464,0.33552,0.09792,0,-0.16704
2004/2/1 9:45,0.1296,0,0.9792,0.0216,0.01728,0.3456,0.12816,0,-0.05616
2004/2/1 10:00,1.19232,0,1.5552,0.02304,0.03024,0.2952,0.09648,0,-0.13392
2004/2/1 10:15,2.83104,0,2.0304,0.02592,0.40896,0.23904,0.19008,0,-0.29808
2004/2/1 10:30,2.48832,0,2.02752,0.45216,0.12528,0.2376,0.84096,0,-0.56304
2004/2/1 10:45,2.37888,0,1.84608,0.43344,0.01872,0.2376,0.13104,0,-0.26352
2004/2/1 11:00,2.32272,0,1.62,0.16128,0.40752,0.4608,0.09504,0,-0.25488
2004/2/1 11:15,2.17296,0,1.584,0.0216,0.2016,0.46512,0.1728,0,-0.21744
2004/2/1 11:30,1.64736,0,1.52496,0.0216,0,0.47664,0.13392,0,-0.13392
2004/2/1 11:45,1.3896,0,1.51344,0.02448,0.29952,0.45792,0.09072,0,-0.13824
2004/2/1 12:00,1.34928,0,1.37088,0.02592,0.288,0.34848,0.09504,0,-0.1224
2004/2/1 12:15,1.88496,0,1.25136,1.46304,0,0.25776,0.12384,0,-0.1512
2004/2/1 12:30,1.73664,0,1.3248,0.02448,0.24624,0.26064,0.09504,0,-0.18
2004/2/1 12:45,1.73952,0,1.2672,0.02448,0.3888,0.2664,0.09216,0,-0.19152
2004/2/1 13:00,1.40976,0,1.00656,0.0216,0,0.29808,0.12384,0,-0.08928
2004/2/1 13:15,0.41904,0,0.32688,0.02448,0.22176,0.32544,0.09504,0,0.01296
2004/2/1 13:30,0.39744,0,0.30672,0.03024,0.432,0.32544,0.09072,0,0.00432
2004/2/1 13:45,0.38592,0,0.4896,0.02448,0.04464,0.324,0.0936,0,0.01728
2004/2/1 14:00,0.44208,0,0.33696,0.02592,0.11952,0.27072,0.13248,0,-0.00576
2004/2/1 14:15,0.47952,0,0.19872,0.02592,0.43488,0.19872,0.09216,0,-0.01584
2004/2/1 14:30,0.4464,0,0.20736,0.0216,0.00576,0.19728,0.08928,0,0.02592
2004/2/1 14:45,0.45792,0,0.30096,0.02592,0.1728,0.2016,0.09216,0,-0.00576
2004/2/1 15:00,0.49392,0,0.56448,0.02592,0.43056,0.19872,0.108,0,-0.10656
2004/2/1 15:15,0.49104,0,0.37008,0.02304,0.036,0.19728,0.0792,0,0.00576
2004/2/1 15:30,0.4896,0,0.49824,0.02304,0.12096,0.19728,0.0864,0,-0.04752
2004/2/1 15:45,0.49968,0,0.59616,0.02592,0.43488,0.19728,0.08352,0,-0.10944
2004/2/1 16:00,0.49104,0,0.72288,0.04752,0.01584,0.26496,0.09648,0,-0.08496
2004/2/1 16:15,2.07936,0,0.6912,0.85536,0.17568,0.19872,0.12096,0,-0.17712
2004/2/1 16:30,1.48752,0,0.69264,0.30096,0.42624,0.2016,0.08928,0,-0.11664
2004/2/1 16:45,1.40832,0,0.65952,0.02304,0.1152,0.1944,0.09216,0,-0.03024
2004/2/1 17:00,1.29168,0,0.66528,0.0216,0.03312,0.19584,0.08928,0,-0.0432
2004/2/1 17:15,1.42848,0,0.68976,0.03168,0.42192,0.1944,0.08352,0,-0.11088
2004/2/1 17:30,1.42992,0,0.68256,0.02736,0.15696,0.19728,0.12096,0,-0.06336
2004/2/1 17:45,1.66896,0,0.68112,0.0216,0,0.19872,0.08784,0,-0.04032
2004/2/1 18:00,3.68496,0,1.43424,0.02592,0.4248,0.19584,0.08928,0,-0.21168
2004/2/1 18:15,3.08016,0,1.47024,0.02448,0.23328,0.20448,0.08352,0,-0.18576
2004/2/1 18:30,2.76048,0,1.71792,0.4536,0,0.21888,0.1728,0,-0.1656
2004/2/1 18:45,2.54304,0,2.6712,0.97632,0.34416,0.22176,0.09648,0,-0.33984
2004/2/1 19:00,1.63728,0,2.31408,1.50912,0.30096,0.47952,0.09072,0,-0.27792
2004/2/1 19:15,1.50336,0,2.05632,0.18432,0,0.51264,0.11664,0,-0.26208
2004/2/1 19:30,1.73808,0,1.66608,0.02448,0.2664,0.41472,0.08928,0,-0.19152
2004/2/1 19:45,1.51776,0,1.71936,0.10368,0.41904,0.41616,0.11808,0,-0.21312
2004/2/1 20:00,1.54512,0,0.6408,0.23472,0.00288,0.3816,0.0936,0,-0.0576
2004/2/1 20:15,1.55232,0,0.324,0.0216,0.18288,0.37296,0.0864,0,-0.04176
2004/2/1 20:30,1.5912,0,0.33696,0.02736,0.41328,0.38592,0.11808,0,-0.05472
2004/2/1 20:45,1.48464,0,0.51696,0.02304,0.07056,0.2088,0.0864,0,-0.02016
2004/2/1 21:00,1.584,0,1.17648,0.02448,0.09648,0.19872,0.09072,0,-0.1152
2004/2/1 21:15,1.57968,0,1.10448,0.02592,0.43344,0.19584,0.09072,0,-0.1368
2004/2/1 21:30,1.584,0,0.7848,0.02592,0.11664,0.19728,0.87408,0,-0.28368
2004/2/1 21:45,1.56672,0,2.2176,0.02304,0.04464,0.31392,0.56592,0,-0.27936
2004/2/1 22:00,1.63296,0,1.46448,0.2952,0.43344,0.33408,1.57536,0,-0.72432
2004/2/1 22:15,1.70784,0,0.76896,0.02448,0.1584,0.324,0.09072,0,-0.1152
2004/2/1 22:30,1.68624,0,0.90864,0.0216,0,0.3024,0.12384,0,-0.14112
2004/2/1 22:45,1.65024,0,0.92448,0.02448,0.44928,0.3024,0.0864,0,-0.15552
2004/2/1 23:00,1.66896,0,1.41552,0.0216,0.17712,0.3024,0.39456,0,-0.19872
2004/2/1 23:15,0.79776,0,1.5408,0.0216,0,0.3024,0.144,0,-0.1008
2004/2/1 23:30,0.46512,0,1.12176,0.02448,0.4032,0.28224,0.08784,0,-0.16272
2004/2/1 23:45,0.49536,0,1.09152,0.02304,0.13968,0.2808,0.12384,0,-0.14544
2004/2/2 0:00,0.25344,0,0.60336,0.0216,0.036,0.33552,0.08928,0,-0.07056
2004/2/2 0:15,0.10656,0,0.08208,0.02448,0.44352,0.29088,0.09072,0,-0.0144
2004/2/2 0:30,0.108,0,0.08496,0.02592,0.50256,0.2592,0.08928,0,-0.02448
2004/2/2 0:45,0.09792,0,0.08064,0.02304,0.56016,0.2592,0.11808,0,-0.0432
2004/2/2 1:00,0.108,0,0.08352,0.02304,0.54864,0.2592,0.09216,0,-0.03888
2004/2/2 1:15,0.10944,0,0.08064,0.03024,0.4176,0.2592,0.0936,0,0.0144
2004/2/2 1:30,0.10656,0,0.08208,0.0288,0.4896,0.2592,0.08928,0,-0.01008
2004/2/2 1:45,0.10512,0,0.08784,0.0288,0.46512,0.2592,0.12528,0,-0.01872
2004/2/2 2:00,0.108,0,0.07776,0.0288,0.432,0.25632,0.09504,0,-0.00576
2004/2/2 2:15,0.1008,0,0.07632,0.0216,0.0432,0.25632,0.09072,0,0.04608
2004/2/2 2:30,0.108,0,0.08208,0.02448,0.17712,0.2592,0.08496,0,0.01296
2004/2/2 2:45,0.108,0,0.08928,0.02736,0.44352,0.2592,0.09216,0,-0.01296
2004/2/2 3:00,0.108,0,0.08064,0.02448,0.11664,0.25056,0.08784,0,0.04032
2004/2/2 3:15,0.10656,0,0.07632,0.02304,0.04176,0.24336,0.08928,0,0.05328
2004/2/2 3:30,0.09504,0,0.07632,0.02592,0.42912,0.2448,0.11664,0,-0.00576
2004/2/2 3:45,0.10656,0,0.07488,0.02304,0.07344,0.2592,0.08784,0,0.04752
2004/2/2 4:00,0.10656,0,0.07488,0.0216,0.09216,0.24624,0.09072,0,0.036
2004/2/2 4:15,0.10656,0,0.07632,0.02448,0.44352,0.24912,0.09072,0,-0.00432
2004/2/2 4:30,0.10512,0,0.07488,0.02448,0.08064,0.24624,0.09216,0,0.0432
2004/2/2 4:45,0.10512,0,0.07488,0.0216,0.072,0.24624,0.13104,0,0.04464
2004/2/2 5:00,0.11232,0,0.06912,0.02592,0.42624,0.24768,0.09072,0,-0.00144
2004/2/2 5:15,0.10512,0,0.08064,0.0216,0.0144,0.26064,0.08928,0,0.05328
2004/2/2 5:30,0.11088,0,0.08352,0.0216,0.12816,0.3672,0.08928,0,0.01152
2004/2/2 5:45,0.10512,0,0.1224,0.02592,0.43056,0.3672,0.09216,0,-0.01728
2004/2/2 6:00,0.10944,0,0.0792,0.0216,0,0.3672,0.0864,0,0.03024
2004/2/2 6:15,0.10656,0,0.08208,0.0216,0.12528,0.3672,0.12384,0,0.00432
2004/2/2 6:30,0.10224,0,0.09072,0.02736,0.42624,0.3456,0.09504,0,-0.01728
2004/2/2 6:45,3.32784,0,0.70128,0.02304,0.00576,0.32544,0.1008,0,-0.01296
2004/2/2 7:00,3.10032,0,1.24128,0.39312,0.11952,0.32976,0.09936,0,-0.11664
2004/2/2 7:15,2.92752,0,1.73232,1.71792,0.48384,0.324,0.09936,0,-0.22896
2004/2/2 7:30,2.7,0,1.67184,0.02304,0.03744,0.324,0.13824,0,-0.10944
2004/2/2 7:45,3.14496,0,1.18512,0.0216,0.06624,0.324,0.08784,0,-0.09504
2004/2/2 8:00,2.7576,0,1.03824,0.0216,0.43632,0.2376,0.32112,0,-0.06768
2004/2/2 8:15,4.86288,0,1.95696,0.0216,0.09504,0.21024,0.09216,0,-0.43488
2004/2/2 8:30,4.65264,0,1.46304,0.0216,0.02592,0.2088,0.08496,0,-0.34272
2004/2/2 8:45,7.45344,0,0.76176,0.02592,0.44352,0.41904,0.09072,0,-0.1152
2004/2/2 9:00,6.08112,0,0.8928,0.02304,0.09216,0.29088,0.0936,0,-0.06336
2004/2/2 9:15,5.28336,0,1.46592,0.02304,0.03312,0.21456,0.0936,0,-0.04032
2004/2/2 9:30,5.26896,0,1.41264,0.02736,0.43344,0.21312,0.11808,0,-0.06624
2004/2/2 9:45,4.71456,0,1.368,0.02448,0.13392,0.21312,0.08496,0,-0.01584
2004/2/2 10:00,4.46544,0,1.44864,0.0216,0,0.21168,0.08928,0,-0.036
2004/2/2 10:15,3.66624,0,1.37088,0.02736,0.45936,0.21168,0.08496,0,-0.08208
2004/2/2 10:30,3.384,0,1.1304,0.02304,0.11808,0.2232,0.12384,0,-0.03456
2004/2/2 10:45,3.11328,0,1.13184,0.02304,0.01008,0.2088,0.09216,0,0.00864
2004/2/2 11:00,3.2256,0,1.1448,0.02448,0.44208,0.21168,0.08928,0,-0.06336
2004/2/2 11:15,3.3048,0,1.16496,0.02304,0.144,0.21312,0.09072,0,-0.0216
2004/2/2 11:30,3.43008,0,1.17936,0.0216,0,0.21024,0.08928,0,-0.01296
2004/2/2 11:45,2.27952,0,1.0008,0.02448,0.44784,0.21456,0.09216,0,-0.04752
2004/2/2 12:00,0.36576,0,0.60048,0.02304,0.11808,0.22608,0.09216,0,-0.00288
2004/2/2 12:15,0.37008,0,0.612,0.02304,0.01296,0.35712,0.11376,0,-0.0072
2004/2/2 12:30,0.44064,0,0.65952,0.42048,0.44064,0.21024,0.08928,0,-0.12672
2004/2/2 12:45,0.54432,0,0.62352,0.1008,0.20016,0.2088,0.08352,0,-0.036
2004/2/2 13:00,0.4608,0,0.50544,0.0216,0,0.216,0.0864,0,0.0216
2004/2/2 13:15,0.33696,0,0.49536,0.02592,0.39024,0.216,0.09072,0,-0.00576
2004/2/2 13:30,0.11088,0,0.50976,0.02448,0.19728,0.21168,0.11808,0,0.0216
2004/2/2 13:45,0.11376,0,0.144,0.0216,0,0.2952,0.09072,0,0.04464
2004/2/2 14:00,0.11088,0,0.06048,0.02592,0.35568,0.26352,0.08784,0,0.01584
2004/2/2 14:15,0.10656,0,0.08784,0.02592,0.26064,0.29088,0.0864,0,0.01584
2004/2/2 14:30,0.11376,0,0.08496,0.0216,0,0.28368,0.08928,0,0.04176
2004/2/2 14:45,0.1152,0,0.0792,0.02592,0.30816,0.2808,0.09072,0,0.01152
2004/2/2 15:00,0.10656,0,0.08496,0.02448,0.26064,0.2808,0.12384,0,0.0144
2004/2/2 15:15,0.10224,0,0.09072,0.0216,0,0.2808,0.0864,0,0.0504
2004/2/2 15:30,0.11232,0,0.24912,0.0288,0.27504,0.2808,0.08928,0,-0.0072
2004/2/2 15:45,2.3688,0,0.71568,0.03312,0.3312,0.2808,0.08928,0,-0.23328
2004/2/2 16:00,2.28528,0,0.74016,0.0216,0,0.27648,0.08352,0,-0.18576
2004/2/2 16:15,2.23488,0,0.77328,0.02448,0.20304,0.2808,0.08784,0,-0.2088
2004/2/2 16:30,2.16288,0,0.77472,0.0288,0.42048,0.2736,0.10944,0,-0.2448
2004/2/2 16:45,2.53008,0,0.78912,0.0216,0,0.27504,0.08784,0,-0.22032
2004/2/2 17:00,3.84912,0,1.46736,0.57888,0.12816,0.37872,0.09216,0,-0.35856
2004/2/2 17:15,2.5488,0,2.20896,0.02304,0.44928,0.5616,0.09216,0,-0.37152
2004/2/2 17:30,1.51776,0,2.08512,0.02304,0.108,0.5616,0.09072,0,-0.22896
2004/2/2 17:45,1.31472,0,1.77552,0.0216,0,0.57888,0.08928,0,-0.15984
2004/2/2 18:00,1.47024,0,1.87056,0.02592,0.43488,0.39888,0.08928,0,-0.22608
2004/2/2 18:15,1.64016,0,2.56464,0.85392,0.30096,0.33264,0.08352,0,-0.24912
2004/2/2 18:30,1.12464,0,2.43648,1.55952,0.00864,0.324,0.11952,0,-0.21312
2004/2/2 18:45,0.99216,0,2.42928,1.23552,0.30096,0.324,0.09072,0,-0.17712
2004/2/2 19:00,0.77184,0,2.52432,0.19584,0.38592,0.4464,0.0864,0,-0.19008
2004/2/2 19:15,1.4328,0,2.05344,0.03744,0,0.52848,0.08208,0,-0.1512
2004/2/2 19:30,1.43136,0,1.72224,0.02304,0.21456,0.34272,0.08784,0,-0.14256
2004/2/2 19:45,4.60368,0,2.45376,0.02592,0.44496,0.3456,0.11808,0,-0.23328
2004/2/2 20:00,4.99536,0,2.72736,0.33264,0.1152,0.34704,0.09072,0,-0.31968
2004/2/2 20:15,4.29984,0,1.70208,0.4176,0.0936,0.51408,0.0864,0,-0.21312
2004/2/2 20:30,3.92112,0,1.45152,0.29376,0.42624,0.49968,0.08784,0,-0.17136
2004/2/2 20:45,3.92976,0,1.29168,0.02304,0.12672,0.50256,0.09648,0,-0.08208
2004/2/2 21:00,4.61952,0,1.512,0.02304,0.03744,0.51552,0.1224,0,-0.18144
2004/2/2 21:15,4.8888,0,1.45296,0.02448,0.4464,0.53568,0.09072,0,-0.26064
2004/2/2 21:30,4.896,0,2.12112,0.0216,0.22896,0.52992,0.09648,0,-0.3024
2004/2/2 21:45,4.248,0,1.76544,0.0216,0,0.52272,1.73376,0,-0.57456
2004/2/2 22:00,2.06064,0,1.24992,0.02448,0.37152,0.71424,0.25632,0,-0.20736
2004/2/2 22:15,1.53936,0,1.43712,0.02448,0.26496,0.43488,0.5616,0,-0.34704
2004/2/2 22:30,1.37376,0,1.20528,0.0216,0,0.43776,0.08784,0,-0.12528
2004/2/2 22:45,1.35072,0,1.04688,0.02304,0.35136,0.46224,0.11664,0,-0.14832
2004/2/2 23:00,3.23136,0,0.63792,0.02592,0.30816,0.31104,0.08928,0,-0.07776
2004/2/2 23:15,3.98016,0,0.53424,0.0216,0,0.2592,0.08208,0,-0.03312
2004/2/2 23:30,3.4704,0,0.32256,0.02448,0.29808,0.25056,0.12528,0,-0.0144
2004/2/2 23:45,3.26736,0,0.14256,0.02304,0.30096,0.23904,0.09648,0,-0.00576
2004/2/3 0:00,3.30192,0,0.16272,0.0216,0,0.2376,0.09216,0,0.00288
2004/2/3 0:15,3.37392,0,0.16272,0.03024,0.3168,0.2376,0.12672,0,-0.05472
2004/2/3 0:30,3.34944,0,0.1512,0.02736,0.37584,0.2376,0.09504,0,-0.0216
2004/2/3 0:45,3.19104,0,0.15984,0.0216,0,0.2376,0.09504,0,0.0072
2004/2/3 1:00,1.0656,0,0.144,0.02448,0.20736,0.1584,0.09216,0,0.00576
2004/2/3 1:15,0.40176,0,0.12816,0.02592,0.396,0.12528,0.12384,0,-0.01296
2004/2/3 1:30,0.37728,0,0.14544,0.0216,0,0.12096,0.09648,0,0.00576
2004/2/3 1:45,0.40608,0,0.13968,0.02448,0.1728,0.12528,0.0936,0,0.0144
2004/2/3 2:00,0.41184,0,0.12816,0.02448,0.43632,0.11664,0.09072,0,-0.01008
2004/2/3 2:15,0.38304,0,0.14544,0.02304,0.0504,0.11952,0.09216,0,0.04752
2004/2/3 2:30,0.39888,0,0.14544,0.02304,0.06624,0.12384,0.08928,0,0.04032
2004/2/3 2:45,0.41616,0,0.12816,0.02304,0.44352,0.12528,0.12528,0,0.01296
2004/2/3 3:00,0.40896,0,0.11232,0.03312,0.53568,0.12816,0.09792,0,-0.03024
2004/2/3 3:15,0.40464,0,0.1296,0.0432,0.5616,0.12528,0.09504,0,-0.0432
2004/2/3 3:30,0.40464,0,0.13104,0.0288,0.4608,0.11808,0.0936,0,-0.02016
2004/2/3 3:45,0.39744,0,0.13968,0.02592,0.51984,0.11376,0.09792,0,-0.0072
2004/2/3 4:00,0.3816,0,0.12528,0.03312,0.48384,0.108,0.1008,0,-0.01296
2004/2/3 4:15,0.41904,0,0.1296,0.0288,0.46368,0.11808,0.1008,0,-0.01872
2004/2/3 4:30,0.41328,0,0.15552,0.02736,0.39456,0.1296,0.12816,0,-0.01152
2004/2/3 4:45,0.4104,0,0.13824,0.0216,0,0.1296,0.09648,0,0.03744
2004/2/3 5:00,0.41472,0,0.12672,0.02304,0.24192,0.12816,0.10224,0,0.02448
2004/2/3 5:15,0.3816,0,0.1584,0.02304,0.40032,0.1224,0.1008,0,-0.036
2004/2/3 5:30,0.41616,0,0.13536,0.0216,0,0.12096,0.09936,0,0.03312
2004/2/3 5:45,0.42048,0,0.12672,0.02448,0.21744,0.12384,0.1008,0,0.02592
2004/2/3 6:00,0.41184,0,0.15264,0.02592,0.4392,0.12672,0.12672,0,-0.05184
2004/2/3 6:15,0.40752,0,0.1368,0.02304,0.07344,0.19728,0.09792,0,0.03888
2004/2/3 6:30,0.576,0,0.26496,0.0216,0.03744,0.23328,0.09648,0,-0.03312
2004/2/3 6:45,4.45104,0,1.71216,0.02592,0.42624,0.12528,0.09072,0,-0.20592
2004/2/3 7:00,3.23424,0,2.57184,2.07936,0.18144,0.12672,0.08928,0,-0.21744
2004/2/3 7:15,2.89296,0,2.36736,0.0216,0,0.12384,0.09072,0,-0.22752
2004/2/3 7:30,2.83968,0,2.21904,0.02304,0.39888,0.12096,0.09504,0,-0.20448
2004/2/3 7:45,2.8152,0,1.26576,0.02736,0.2664,0.12528,0.10512,0,-0.09504
2004/2/3 8:00,1.5552,0,1.39536,0.23184,0.0072,0.11376,0.4752,0,-0.16128
2004/2/3 8:15,2.78496,0,0.80208,0.02592,0.34272,0.11376,0.42624,0,-0.58896
2004/2/3 8:30,0.108,0,0.5544,0.02448,0.27072,0.14688,0.0864,0,-0.01728
2004/2/3 8:45,0.09792,0,0.36576,0.0216,0,0.11088,0.09216,0,0.03168
2004/2/3 9:00,0.108,0,0.3528,0.02304,0.33264,0.11232,0.08928,0,-0.01008
2004/2/3 9:15,0.10944,0,0.3528,0.02592,0.26352,0.11088,0.12384,0,0
2004/2/3 9:30,0.11376,0,0.40032,0.0216,0,0.16848,0.12816,0,0.03024
2004/2/3 9:45,0.10944,0,0.34704,0.02592,0.30528,0.35424,0.0864,0,-0.02736
2004/2/3 10:00,0.09936,0,0.35568,0.02304,0.24192,0.37872,0.10368,0,-0.02592
2004/2/3 10:15,0.1224,0,0.36,0.0216,0,0.35856,0.11376,0,-0.00432
2004/2/3 10:30,0.13104,0,0.3528,0.02448,0.34992,0.36432,0.08496,0,-0.03312
2004/2/3 10:45,0.13248,0,0.35424,0.02592,0.18576,0.3528,0.08784,0,-0.02304
2004/2/3 11:00,0.13104,0,0.34848,0.0216,0,0.36432,0.08496,0,0.01584
2004/2/3 11:15,0.1296,0,0.35568,0.02448,0.37152,0.32976,0.11952,0,-0.03744
2004/2/3 11:30,0.12384,0,0.35568,0.02448,0.24336,0.3312,0.09216,0,-0.0144
2004/2/3 11:45,0.11088,0,0.34704,0.0216,0,0.29952,0.08784,0,0.0144
2004/2/3 12:00,0.17856,0,0.5544,0.7704,0.33264,0.324,0.08928,0,-0.1296
2004/2/3 12:15,0.11664,0,0.57168,1.42272,0.20304,0.31824,0.08928,0,0.00288
2004/2/3 12:30,0.16416,0,0.59904,0.96192,0,0.32688,0.09072,0,0.01008
2004/2/3 12:45,0.13104,0,0.63072,0.46368,0.37872,0.25776,0.1296,0,-0.06768
2004/2/3 13:00,0.10944,0,0.81216,0.08064,0.24048,0.14544,0.0864,0,-0.01152
2004/2/3 13:15,0.10368,0,0.65376,0.0792,0,0.16848,0.08928,0,0.02736
2004/2/3 13:30,0.11088,0,0.62928,0.08496,0.36864,0.11232,0.0864,0,-0.01296
2004/2/3 13:45,0.11232,0,0.61776,0.07776,0.16992,0.11664,0.08784,0,0.01728
2004/2/3 14:00,0.10368,0,0.61776,0.06768,0,0.1152,0.09216,0,0.05184
2004/2/3 14:15,0.10944,0,0.62352,0.072,0.41184,0.11088,0.08496,0,-0.02304
2004/2/3 14:30,0.10944,0,0.61056,0.0648,0.20736,0.11232,0.08928,0,0.01872
2004/2/3 14:45,0.09936,0,1.15632,0.0648,0,0.17568,0.11664,0,0.01296
2004/2/3 15:00,0.13104,0,1.24128,0.072,0.39168,0.324,0.08784,0,-0.05904
2004/2/3 15:15,0.11232,0,1.30032,0.09216,0.216,0.2592,0.08208,0,-0.01008
2004/2/3 15:30,1.44432,0,1.79136,0.09648,0,0.10944,0.08352,0,-0.08208
2004/2/3 15:45,1.476,0,1.7136,0.1008,0.34272,0.11088,0.08928,0,-0.12816
2004/2/3 16:00,0.108,0,1.14624,0.10224,0.26928,0.11088,0.12096,0,-0.01152
2004/2/3 16:15,1.44144,0,1.34208,0.09936,0,0.10944,0.08352,0,-0.12528
2004/2/3 16:30,2.2392,0,1.03248,0.10224,0.33264,0.10944,0.08208,0,-0.252
2004/2/3 16:45,2.22624,0,1.09296,0.10656,0.34272,0.10944,0.08208,0,-0.24624
2004/2/3 17:00,2.11392,0,1.09584,0.09936,0,0.11088,0.08784,0,-0.18864
2004/2/3 17:15,2.1096,0,1.08864,0.10656,0.20016,0.108,0.1008,0,-0.24336
2004/2/3 17:30,2.1168,0,1.11168,0.10656,0.44352,0.11232,0.10512,0,-0.2448
2004/2/3 17:45,2.95344,0,2.124,0.08496,0.03312,0.11088,0.08928,0,-0.22032
2004/2/3 18:00,1.94544,0,2.02464,0.02448,0.1584,0.10944,0.08928,0,-0.12816
2004/2/3 18:15,2.02896,0,2.08656,0.02448,0.42624,0.37296,0.09072,0,-0.19872
2004/2/3 18:30,3.60432,0,3.07728,0.02304,0.06624,0.43632,0.09216,0,-0.31104
2004/2/3 18:45,2.67408,0,3.17664,0.0216,0.0936,0.26208,0.12672,0,-0.30672
2004/2/3 19:00,1.75536,0,2.18736,0.02448,0.44352,0.19728,0.09648,0,-0.20592
2004/2/3 19:15,1.476,0,2.04768,0.02592,0.20016,0.19728,0.09504,0,-0.16272
2004/2/3 19:30,1.89504,0,1.88496,0.0216,0,0.19728,0.09504,0,-0.14256
2004/2/3 19:45,2.2752,0,1.65024,0.03024,0.36864,0.19728,0.10224,0,-0.24768
2004/2/3 20:00,7.49808,0,2.41056,0.0288,0.21888,0.19584,0.1296,0,-0.42336
2004/2/3 20:15,7.61472,0,3.00528,0.0216,0,0.19728,0.09792,0,-0.39312
2004/2/3 20:30,6.83712,0,2.99664,0.02448,0.36864,0.34704,0.09072,0,-0.45216
2004/2/3 20:45,6.56352,0,3.02112,0.02304,0.27792,0.3672,0.1152,0,-0.40464
2004/2/3 21:00,6.17472,0,3.05136,0.0216,0,0.37872,0.10512,0,-0.3312
2004/2/3 21:15,5.88528,0,2.80656,0.19152,0.29808,0.37008,0.09072,0,-0.33408
2004/2/3 21:30,5.62752,0,2.84688,0.53712,0.42912,0.36144,0.09072,0,-0.41472
2004/2/3 21:45,5.25456,0,3.09024,0.45216,0.02016,0.36144,0.18,0,-0.396
2004/2/3 22:00,4.76064,0,2.5848,0.27072,0.24048,0.35568,0.08928,0,-0.37296
2004/2/3 22:15,2.592,0,1.83168,0.02448,0.4176,0.36144,0.11664,0,-0.24192
2004/2/3 22:30,2.4048,0,1.21248,0.02304,0.04464,0.34848,0.12384,0,-0.1224
2004/2/3 22:45,2.77632,0,1.26,0.0216,0.14256,0.3312,0.09072,0,-0.16416
2004/2/3 23:00,1.51056,0,1.2816,0.02448,0.432,0.40032,0.12528,0,-0.1584
2004/2/3 23:15,2.59776,0,0.96192,0.02448,0.08496,0.37008,2.02464,0,-0.77616
2004/2/3 23:30,2.82672,0,1.88496,0.02304,0.07632,0.35136,0.54432,0,-0.24048
2004/2/3 23:45,2.77488,0,1.68768,0.02736,0.42912,0.33264,1.01088,0,-0.37008
2004/2/4 0:00,1.3752,0,0.51984,0.02304,0.16992,0.33552,0.09936,0,-0.02736
2004/2/4 0:15,0.10368,0,0.07632,0.0216,0,0.288,0.10224,0,0.04176
2004/2/4 0:30,0.10944,0,0.0432,0.0288,0.44496,0.216,0.10512,0,0.03456
2004/2/4 0:45,0.108,0,0.0432,0.02448,0.22032,0.216,0.10368,0,0.04752
2004/2/4 1:00,0.108,0,0.04608,0.0216,0,0.216,0.13104,0,0.0792
2004/2/4 1:15,0.10656,0,0.04608,0.02592,0.34128,0.216,0.09936,0,0.02736
2004/2/4 1:30,0.10944,0,0.0432,0.02736,0.288,0.216,0.1008,0,0.04176
2004/2/4 1:45,0.10944,0,0.0432,0.0216,0,0.21312,0.10368,0,0.06768
2004/2/4 2:00,0.10944,0,0.04752,0.03024,0.27504,0.21024,0.09936,0,0.0432
2004/2/4 2:15,0.108,0,0.05472,0.02592,0.2232,0.2088,0.13536,0,0.03168
2004/2/4 2:30,0.10512,0,0.05184,0.0216,0,0.21024,0.09792,0,0.07632
2004/2/4 2:45,0.10944,0,0.04752,0.02448,0.32976,0.21312,0.10512,0,0.0432
2004/2/4 3:00,0.10656,0,0.0432,0.02448,0.24048,0.21024,0.09936,0,0.05184
2004/2/4 3:15,0.10224,0,0.05904,0.0216,0,0.21312,0.12528,0,0.06192
2004/2/4 3:30,0.108,0,0.05328,0.02736,0.30672,0.20736,0.10656,0,0.03024
2004/2/4 3:45,0.11088,0,0.04608,0.02448,0.18576,0.21024,0.10224,0,0.0504
2004/2/4 4:00,0.11088,0,0.04464,0.0216,0,0.21024,0.10512,0,0.0792
2004/2/4 4:15,0.10368,0,0.0432,0.02592,0.34272,0.21168,0.13536,0,0.03888
2004/2/4 4:30,0.11088,0,0.04464,0.02592,0.49824,0.21024,0.10512,0,0.0072
2004/2/4 4:45,0.10224,0,0.05472,0.02448,0.54864,0.21168,0.09792,0,-0.00432
2004/2/4 5:00,0.09936,0,0.05472,0.0216,0.5616,0.21168,0.108,0,-0.01152
2004/2/4 5:15,0.10656,0,0.09216,1.96848,0.43632,0.21024,0.10368,0,0.05184
2004/2/4 5:30,0.09936,0,0.09936,0.96912,0.4896,0.21168,0.13536,0,0.00288
2004/2/4 5:45,0.11232,0,0.06336,0.1872,0.44352,0.2088,0.10656,0,0.01584
2004/2/4 6:00,0.10368,0,0.05472,0.0792,0.34128,0.2088,0.10512,0,0.04032
2004/2/4 6:15,0.12096,0,0.13392,0.07488,0,0.23904,0.10368,0,0.04752
2004/2/4 6:30,4.79376,0,2.56032,0.52992,0.35856,0.2808,0.10512,0,-0.27504
2004/2/4 6:45,3.8952,0,3.07728,1.02672,0.39312,0.22176,0.13392,0,-0.22032
2004/2/4 7:00,3.63024,0,2.72448,1.98432,0,0.21888,0.09936,0,-0.12528
2004/2/4 7:15,2.98944,0,2.02464,0.02448,0.21744,0.21312,0.10512,0,-0.12672
2004/2/4 7:30,3.42,0,1.73088,0.37584,0.36,0.21024,0.09936,0,-0.17712
2004/2/4 7:45,3.27168,0,0.53856,0.49392,0.0288,0.19872,0.80208,0,-0.71712
2004/2/4 8:00,2.808,0,0.5976,0.02448,0.20592,0.19872,0.12816,0,-0.37872
2004/2/4 8:15,0.10944,0,0.3744,0.0216,0.24912,0.19872,0.09648,0,0.01008
2004/2/4 8:30,0.10656,0,0.0504,0.0216,0,0.19872,0.09504,0,0.06768
2004/2/4 8:45,0.10944,0,0.0504,0.03312,0.30384,0.19872,0.12384,0,0.03024
2004/2/4 9:00,0.10656,0,0.05184,0.0288,0.27936,0.1944,0.09216,0,0.03312
2004/2/4 9:15,0.10944,0,0.05328,0.0216,0,0.19872,0.09504,0,0.0792